| time (UTC) | temp F | wind direction | speed MPH | gust MPH | rain 1hr in | rain 24hr in | rain mn in | humidity % | barometer mb |
| 20260905232501 | 71 | 322 | 1.0 | 3.0 | 0.00 | 0.00 | 0.00 | 44 | 1016.9 |
| 20260905232258 | 71 | 322 | 1.0 | 3.0 | 0.00 | 0.00 | 0.00 | 43 | 1017.0 |
| 20260905231501 | 72 | 319 | 1.0 | 3.0 | 0.00 | 0.00 | 0.00 | 43 | 1017.0 |
| 20260905231001 | 72 | 19 | 1.0 | 3.0 | 0.00 | 0.00 | 0.00 | 43 | 1017.0 |
| 20260905230502 | 72 | 128 | 1.0 | 3.0 | 0.00 | 0.00 | 0.00 | 43 | 1017.0 |
| 20260905230257 | 72 | 304 | 1.0 | 5.0 | 0.00 | 0.00 | 0.00 | 43 | 1017.0 |
| 20260905225500 | 72 | 335 | 1.0 | 5.0 | 0.00 | 0.00 | 0.00 | 44 | 1017.0 |
| 20260905225001 | 72 | 323 | 2.0 | 5.0 | 0.00 | 0.00 | 0.00 | 43 | 1017.2 |
| 20260905224501 | 72 | 317 | 1.0 | 5.0 | 0.00 | 0.00 | 0.00 | 44 | 1017.1 |
| 20260905224001 | 72 | 112 | 0.0 | 4.0 | 0.00 | 0.00 | 0.00 | 44 | 1017.1 |
| 20260905223503 | 71 | 73 | 0.0 | 4.0 | 0.00 | 0.00 | 0.00 | 44 | 1017.1 |
| 20260905223259 | 71 | 98 | 2.0 | 7.0 | 0.00 | 0.00 | 0.00 | 45 | 1017.3 |
| 20260905222503 | 71 | 98 | 2.0 | 7.0 | 0.00 | 0.00 | 0.00 | 45 | 1017.3 |
| 20260905222003 | 71 | 109 | 2.0 | 5.0 | 0.00 | 0.00 | 0.00 | 46 | 1017.3 |
| 20260905221505 | 71 | 98 | 2.0 | 7.0 | 0.00 | 0.00 | 0.00 | 44 | 1017.4 |
| 20260905221002 | 71 | 98 | 2.0 | 7.0 | 0.00 | 0.00 | 0.00 | 45 | 1017.4 |
| 20260905220502 | 72 | 23 | 1.0 | 3.0 | 0.00 | 0.00 | 0.00 | 44 | 1017.5 |
| 20260905220003 | 72 | 109 | 1.0 | 2.0 | 0.00 | 0.00 | 0.00 | 44 | 1017.5 |
| 20260905215458 | 72 | 294 | 1.0 | 4.0 | 0.00 | 0.00 | 0.00 | 44 | 1017.5 |
| 20260905214959 | 72 | 122 | 1.0 | 4.0 | 0.00 | 0.00 | 0.00 | 44 | 1017.5 |
| 20260905214459 | 73 | 98 | 1.0 | 4.0 | 0.00 | 0.00 | 0.00 | 44 | 1017.5 |
| 20260905213959 | 72 | 104 | 1.0 | 4.0 | 0.00 | 0.00 | 0.00 | 43 | 1017.5 |
| 20260905213459 | 72 | 127 | 1.0 | 9.0 | 0.00 | 0.00 | 0.00 | 46 | 1017.6 |
| 20260905212959 | 71 | 113 | 1.0 | 9.0 | 0.00 | 0.00 | 0.00 | 46 | 1017.7 |
| 20260905212456 | 71 | 311 | 2.0 | 9.0 | 0.00 | 0.00 | 0.00 | 47 | 1017.6 |
| 20260905211956 | 71 | 113 | 2.0 | 9.0 | 0.00 | 0.00 | 0.00 | 45 | 1017.7 |
| 20260905211454 | 72 | 102 | 2.0 | 9.0 | 0.00 | 0.00 | 0.00 | 44 | 1017.7 |
| 20260905210955 | 72 | 280 | 2.0 | 9.0 | 0.00 | 0.00 | 0.00 | 44 | 1017.8 |
| 20260905210454 | 72 | 298 | 2.0 | 8.0 | 0.00 | 0.00 | 0.00 | 43 | 1017.9 |
| 20260905205954 | 73 | 318 | 3.0 | 8.0 | 0.00 | 0.00 | 0.00 | 43 | 1017.9 |
| 20260905205801 | 71 | 110 | 2.0 | 6.0 | 0.00 | 0.00 | 0.00 | 44 | 1017.9 |
| 20260905204955 | 72 | 68 | 2.0 | 7.0 | 0.00 | 0.00 | 0.00 | 43 | 1018.0 |
| 20260905204453 | 71 | 113 | 1.0 | 7.0 | 0.00 | 0.00 | 0.00 | 45 | 1018.0 |
| 20260905204251 | 71 | 111 | 1.0 | 5.0 | 0.00 | 0.00 | 0.00 | 45 | 1018.0 |
| 20260905203453 | 71 | 94 | 2.0 | 5.0 | 0.00 | 0.00 | 0.00 | 46 | 1018.1 |
| 20260905202953 | 70 | 96 | 2.0 | 8.0 | 0.00 | 0.00 | 0.00 | 46 | 1018.1 |
| 20260905202453 | 70 | 61 | 3.0 | 8.0 | 0.00 | 0.00 | 0.00 | 45 | 1018.1 |
| 20260905201952 | 70 | 96 | 2.0 | 8.0 | 0.00 | 0.00 | 0.00 | 47 | 1018.1 |
| 20260905201451 | 69 | 162 | 2.0 | 8.0 | 0.00 | 0.00 | 0.00 | 47 | 1018.2 |
| 20260905200950 | 69 | 108 | 2.0 | 6.0 | 0.00 | 0.00 | 0.00 | 47 | 1018.2 |
| 20260905200451 | 69 | 141 | 2.0 | 5.0 | 0.00 | 0.00 | 0.00 | 48 | 1018.4 |
| 20260905200245 | 69 | 303 | 2.0 | 6.0 | 0.00 | 0.00 | 0.00 | 49 | 1018.5 |
| 20260905195450 | 68 | 94 | 1.0 | 6.0 | 0.00 | 0.00 | 0.00 | 51 | 1018.5 |
| 20260905194952 | 68 | 115 | 2.0 | 6.0 | 0.00 | 0.00 | 0.00 | 52 | 1018.5 |
| 20260905194451 | 67 | 88 | 3.0 | 7.0 | 0.00 | 0.00 | 0.00 | 50 | 1018.7 |
| 20260905194249 | 67 | 90 | 2.0 | 7.0 | 0.00 | 0.00 | 0.00 | 52 | 1018.7 |
| 20260905193749 | 67 | 117 | 2.0 | 9.0 | 0.00 | 0.00 | 0.00 | 51 | 1018.9 |
| 20260905193249 | 66 | 27 | 2.0 | 9.0 | 0.00 | 0.00 | 0.00 | 54 | 1018.9 |
| 20260905192452 | 66 | 96 | 2.0 | 4.0 | 0.00 | 0.00 | 0.00 | 55 | 1018.9 |
| 20260905191950 | 66 | 303 | 2.0 | 8.0 | 0.00 | 0.00 | 0.00 | 55 | 1019.1 |
| 20260905191451 | 65 | 104 | 3.0 | 8.0 | 0.00 | 0.00 | 0.00 | 56 | 1019.1 |
| 20260905190951 | 65 | 106 | 1.0 | 4.0 | 0.00 | 0.00 | 0.00 | 56 | 1019.2 |
| 20260905190451 | 64 | 63 | 1.0 | 4.0 | 0.00 | 0.00 | 0.00 | 59 | 1019.3 |
| 20260905190243 | 64 | 100 | 2.0 | 4.0 | 0.00 | 0.00 | 0.00 | 58 | 1019.4 |
| 20260905185448 | 64 | 113 | 2.0 | 4.0 | 0.00 | 0.00 | 0.00 | 58 | 1019.4 |
| 20260905184949 | 64 | 114 | 1.0 | 6.0 | 0.00 | 0.00 | 0.00 | 59 | 1019.4 |
| 20260905184448 | 64 | 112 | 1.0 | 6.0 | 0.00 | 0.00 | 0.00 | 59 | 1019.4 |
| 20260905183948 | 63 | 116 | 1.0 | 4.0 | 0.00 | 0.00 | 0.00 | 59 | 1019.5 |
| 20260905183446 | 64 | 110 | 1.0 | 4.0 | 0.00 | 0.00 | 0.00 | 57 | 1019.6 |
| 20260905182947 | 63 | 314 | 2.0 | 6.0 | 0.00 | 0.00 | 0.00 | 61 | 1019.7 |
| 20260905182444 | 62 | 124 | 2.0 | 6.0 | 0.00 | 0.00 | 0.00 | 61 | 1019.7 |
| 20260905181942 | 62 | 103 | 2.0 | 6.0 | 0.00 | 0.00 | 0.00 | 62 | 1019.8 |
| 20260905181435 | 62 | 115 | 2.0 | 4.0 | 0.00 | 0.00 | 0.00 | 63 | 1019.8 |
| 20260905180935 | 61 | 136 | 2.0 | 4.0 | 0.00 | 0.00 | 0.00 | 64 | 1019.9 |
| 20260905180434 | 61 | 104 | 2.0 | 4.0 | 0.00 | 0.00 | 0.00 | 64 | 1019.9 |
| 20260905175933 | 61 | 100 | 1.0 | 3.0 | 0.00 | 0.00 | 0.00 | 64 | 1019.9 |
| 20260905175432 | 61 | 284 | 1.0 | 3.0 | 0.00 | 0.00 | 0.00 | 66 | 1019.9 |
| 20260905174929 | 61 | 109 | 2.0 | 6.0 | 0.00 | 0.00 | 0.00 | 66 | 1020.0 |
| 20260905174431 | 59 | 76 | 2.0 | 6.0 | 0.00 | 0.00 | 0.00 | 68 | 1020.1 |
| 20260905173931 | 60 | 119 | 2.0 | 4.0 | 0.00 | 0.00 | 0.00 | 68 | 1020.2 |
| 20260905173431 | 59 | 138 | 2.0 | 4.0 | 0.00 | 0.00 | 0.00 | 69 | 1020.2 |
| 20260905172931 | 59 | 104 | 1.0 | 3.0 | 0.00 | 0.00 | 0.00 | 69 | 1020.2 |
| 20260905172435 | 59 | 96 | 1.0 | 3.0 | 0.00 | 0.00 | 0.00 | 71 | 1020.2 |
| 20260905172235 | 58 | 92 | 1.0 | 3.0 | 0.00 | 0.00 | 0.00 | 72 | 1020.2 |
| 20260905171434 | 58 | 101 | 1.0 | 3.0 | 0.00 | 0.00 | 0.00 | 73 | 1020.2 |
| 20260905171230 | 57 | 95 | 1.0 | 4.0 | 0.00 | 0.00 | 0.00 | 74 | 1020.3 |
| 20260905170429 | 57 | 113 | 1.0 | 4.0 | 0.00 | 0.00 | 0.00 | 73 | 1020.3 |
| 20260905165931 | 57 | 324 | 1.0 | 4.0 | 0.00 | 0.00 | 0.00 | 75 | 1020.3 |
| 20260905165430 | 57 | 99 | 1.0 | 2.0 | 0.00 | 0.00 | 0.00 | 74 | 1020.4 |
| 20260905164929 | 56 | 94 | 1.0 | 4.0 | 0.00 | 0.00 | 0.00 | 75 | 1020.3 |
| 20260905164429 | 56 | 111 | 1.0 | 4.0 | 0.00 | 0.00 | 0.00 | 76 | 1020.6 |
| 20260905164229 | 55 | 97 | 1.0 | 3.0 | 0.00 | 0.00 | 0.00 | 76 | 1020.6 |
| 20260905163430 | 55 | 111 | 1.0 | 3.0 | 0.00 | 0.00 | 0.00 | 78 | 1020.7 |
| 20260905162927 | 55 | 333 | 1.0 | 4.0 | 0.00 | 0.00 | 0.00 | 78 | 1020.8 |
| 20260905162426 | 54 | 119 | 1.0 | 4.0 | 0.00 | 0.00 | 0.00 | 79 | 1020.8 |
| 20260905162226 | 54 | 99 | 1.0 | 3.0 | 0.00 | 0.00 | 0.00 | 78 | 1020.8 |
| 20260905161426 | 54 | 3 | 1.0 | 4.0 | 0.00 | 0.00 | 0.00 | 78 | 1020.9 |
| 20260905160925 | 54 | 99 | 1.0 | 4.0 | 0.00 | 0.00 | 0.00 | 78 | 1020.9 |
| 20260905160427 | 54 | 329 | 1.0 | 4.0 | 0.00 | 0.00 | 0.00 | 78 | 1020.9 |
| 20260905155924 | 54 | 96 | 1.0 | 4.0 | 0.00 | 0.00 | 0.00 | 77 | 1020.9 |
| 20260905155423 | 54 | 119 | 1.0 | 3.0 | 0.00 | 0.00 | 0.00 | 77 | 1020.9 |
| 20260905154921 | 54 | 100 | 1.0 | 2.0 | 0.00 | 0.00 | 0.00 | 78 | 1020.9 |
| 20260905154420 | 54 | 102 | 1.0 | 2.0 | 0.00 | 0.00 | 0.00 | 78 | 1020.8 |
| 20260905153920 | 54 | 106 | 1.0 | 2.0 | 0.00 | 0.00 | 0.00 | 78 | 1020.9 |
| 20260905153715 | 53 | 98 | 0.0 | 2.0 | 0.00 | 0.00 | 0.00 | 79 | 1020.8 |
| 20260905152917 | 53 | 98 | 0.0 | 2.0 | 0.00 | 0.00 | 0.00 | 79 | 1020.9 |
| 20260905152719 | 53 | 317 | 0.0 | 2.0 | 0.00 | 0.00 | 0.00 | 80 | 1020.9 |
| 20260905151912 | 52 | 317 | 0.0 | 2.0 | 0.00 | 0.00 | 0.00 | 82 | 1020.9 |
| 20260905151412 | 51 | 317 | 0.0 | 2.0 | 0.00 | 0.00 | 0.00 | 84 | 1020.9 |
| 20260905150910 | 50 | 317 | 0.0 | 1.0 | 0.00 | 0.00 | 0.00 | 85 | 1020.9 |
| 20260905150411 | 50 | 317 | 0.0 | 1.0 | 0.00 | 0.00 | 0.00 | 85 | 1020.9 |
| 20260905145910 | 49 | 317 | 0.0 | 0.0 | 0.00 | 0.00 | 0.00 | 86 | 1021.0 |
| 20260905145412 | 49 | 317 | 0.0 | 0.0 | 0.00 | 0.00 | 0.00 | 87 | 1021.0 |
| 20260905144910 | 48 | 317 | 0.0 | 0.0 | 0.00 | 0.00 | 0.00 | 88 | 1021.1 |
| 20260905144408 | 48 | 317 | 0.0 | 2.0 | 0.00 | 0.00 | 0.00 | 89 | 1021.1 |
| 20260905143906 | 47 | 317 | 0.0 | 2.0 | 0.00 | 0.00 | 0.00 | 89 | 1021.1 |
| 20260905143404 | 47 | 317 | 0.0 | 2.0 | 0.00 | 0.00 | 0.00 | 89 | 1021.0 |
| 20260905142902 | 46 | 317 | 0.0 | 2.0 | 0.00 | 0.00 | 0.00 | 89 | 1021.0 |
| 20260905142403 | 46 | 317 | 0.0 | 2.0 | 0.00 | 0.00 | 0.00 | 89 | 1021.0 |
| 20260905141902 | 46 | 317 | 0.0 | 2.0 | 0.00 | 0.00 | 0.00 | 90 | 1020.9 |
| 20260905141402 | 46 | 317 | 0.0 | 2.0 | 0.00 | 0.00 | 0.00 | 89 | 1020.8 |
| 20260905141013 | 45 | 317 | 0.0 | 1.0 | 0.00 | 0.00 | 0.00 | 88 | 1020.8 |
| 20260905140949 | 45 | 317 | 0.0 | 2.0 | 0.00 | 0.00 | 0.00 | 89 | 1020.8 |
| 20260905135901 | 45 | 317 | 0.0 | 1.0 | 0.00 | 0.00 | 0.00 | 88 | 1020.8 |
| 20260905135401 | 46 | 317 | 1.0 | 1.0 | 0.00 | 0.00 | 0.00 | 89 | 1020.8 |
| 20260905134902 | 45 | 317 | 1.0 | 1.0 | 0.00 | 0.00 | 0.00 | 89 | 1020.8 |
| 20260905134400 | 45 | 317 | 0.0 | 2.0 | 0.00 | 0.00 | 0.00 | 89 | 1020.8 |
| 20260905133901 | 45 | 317 | 0.0 | 2.0 | 0.00 | 0.00 | 0.00 | 89 | 1020.7 |
| 20260905133656 | 45 | 317 | 1.0 | 2.0 | 0.00 | 0.00 | 0.00 | 89 | 1020.7 |
| 20260905133210 | 45 | 317 | 1.0 | 1.0 | 0.00 | 0.00 | 0.00 | 89 | 1020.7 |
| 20260905132401 | 45 | 317 | 1.0 | 1.0 | 0.00 | 0.00 | 0.00 | 88 | 1020.7 |
| 20260905131859 | 45 | 317 | 1.0 | 1.0 | 0.00 | 0.00 | 0.00 | 88 | 1020.7 |
| 20260905131400 | 45 | 317 | 0.0 | 2.0 | 0.00 | 0.00 | 0.00 | 88 | 1020.6 |
| 20260905130900 | 46 | 307 | 0.0 | 2.0 | 0.00 | 0.00 | 0.00 | 88 | 1020.4 |
| 20260905130358 | 46 | 317 | 0.0 | 2.0 | 0.00 | 0.00 | 0.00 | 88 | 1020.4 |
| 20260905125857 | 46 | 317 | 0.0 | 2.0 | 0.00 | 0.00 | 0.00 | 88 | 1020.4 |
| 20260905125355 | 46 | 317 | 1.0 | 1.0 | 0.00 | 0.00 | 0.00 | 89 | 1020.4 |
| 20260905124854 | 46 | 317 | 1.0 | 1.0 | 0.00 | 0.00 | 0.00 | 89 | 1020.4 |
| 20260905124353 | 46 | 317 | 1.0 | 1.0 | 0.00 | 0.00 | 0.00 | 88 | 1020.6 |
| 20260905123854 | 46 | 317 | 0.0 | 1.0 | 0.00 | 0.00 | 0.00 | 88 | 1020.4 |
| 20260905123354 | 46 | 317 | 0.0 | 1.0 | 0.00 | 0.00 | 0.00 | 88 | 1020.6 |
| 20260905122855 | 46 | 307 | 0.0 | 1.0 | 0.00 | 0.00 | 0.00 | 88 | 1020.6 |
| 20260905122353 | 46 | 317 | 0.0 | 1.0 | 0.00 | 0.00 | 0.00 | 87 | 1020.6 |
| 20260905121854 | 47 | 317 | 0.0 | 1.0 | 0.00 | 0.00 | 0.00 | 87 | 1020.7 |
| 20260905121351 | 47 | 317 | 0.0 | 1.0 | 0.00 | 0.00 | 0.00 | 86 | 1020.7 |
| 20260905120852 | 47 | 317 | 0.0 | 1.0 | 0.00 | 0.00 | 0.00 | 86 | 1020.6 |
| 20260905120352 | 47 | 317 | 0.0 | 2.0 | 0.00 | 0.00 | 0.00 | 86 | 1020.7 |
| 20260905115852 | 48 | 317 | 0.0 | 2.0 | 0.00 | 0.00 | 0.00 | 86 | 1020.7 |
| 20260905115353 | 48 | 317 | 0.0 | 1.0 | 0.00 | 0.00 | 0.00 | 86 | 1020.8 |
| 20260905114849 | 48 | 317 | 0.0 | 1.0 | 0.00 | 0.00 | 0.00 | 85 | 1020.7 |
| 20260905114347 | 49 | 317 | 0.0 | 1.0 | 0.00 | 0.00 | 0.00 | 85 | 1020.7 |
| 20260905113848 | 49 | 317 | 0.0 | 1.0 | 0.00 | 0.00 | 0.00 | 84 | 1020.7 |
| 20260905113346 | 49 | 317 | 0.0 | 2.0 | 0.00 | 0.00 | 0.00 | 84 | 1020.7 |
| 20260905112843 | 49 | 317 | 0.0 | 2.0 | 0.00 | 0.00 | 0.00 | 85 | 1020.6 |
| 20260905112343 | 50 | 317 | 0.0 | 2.0 | 0.00 | 0.00 | 0.00 | 85 | 1020.6 |
| 20260905111844 | 49 | 317 | 0.0 | 2.0 | 0.00 | 0.00 | 0.00 | 85 | 1020.6 |
| 20260905111644 | 49 | 317 | 0.0 | 2.0 | 0.00 | 0.00 | 0.00 | 85 | 1020.4 |
| 20260905110840 | 49 | 317 | 0.0 | 2.0 | 0.00 | 0.00 | 0.00 | 84 | 1020.6 |
| 20260905110339 | 50 | 317 | 0.0 | 0.0 | 0.00 | 0.00 | 0.00 | 84 | 1020.6 |
| 20260905110141 | 50 | 317 | 0.0 | 2.0 | 0.00 | 0.00 | 0.00 | 84 | 1020.6 |
| 20260905105340 | 50 | 317 | 0.0 | 2.0 | 0.00 | 0.00 | 0.00 | 84 | 1020.6 |
| 20260905104840 | 50 | 317 | 0.0 | 2.0 | 0.00 | 0.00 | 0.00 | 83 | 1020.6 |
| 20260905104339 | 50 | 317 | 0.0 | 2.0 | 0.00 | 0.00 | 0.00 | 83 | 1020.4 |
| 20260905103840 | 50 | 317 | 0.0 | 1.0 | 0.00 | 0.00 | 0.00 | 83 | 1020.6 |
| 20260905103638 | 50 | 317 | 0.0 | 2.0 | 0.00 | 0.00 | 0.00 | 83 | 1020.6 |
| 20260905102840 | 50 | 317 | 0.0 | 2.0 | 0.00 | 0.00 | 0.00 | 83 | 1020.4 |
| 20260905102339 | 50 | 317 | 0.0 | 2.0 | 0.00 | 0.00 | 0.00 | 83 | 1020.6 |
| 20260905101840 | 51 | 317 | 1.0 | 2.0 | 0.00 | 0.00 | 0.00 | 82 | 1020.4 |
| 20260905101340 | 51 | 317 | 1.0 | 1.0 | 0.00 | 0.00 | 0.00 | 83 | 1020.6 |
| 20260905100839 | 50 | 317 | 1.0 | 1.0 | 0.00 | 0.00 | 0.00 | 83 | 1020.4 |
| 20260905100340 | 50 | 307 | 0.0 | 2.0 | 0.00 | 0.00 | 0.00 | 83 | 1020.4 |
| 20260905095840 | 50 | 317 | 0.0 | 2.0 | 0.00 | 0.00 | 0.00 | 83 | 1020.4 |
| 20260905095339 | 50 | 317 | 0.0 | 2.0 | 0.00 | 0.00 | 0.00 | 82 | 1020.3 |
| 20260905094837 | 50 | 317 | 0.0 | 2.0 | 0.00 | 0.00 | 0.00 | 82 | 1020.4 |
| 20260905094337 | 50 | 317 | 0.0 | 2.0 | 0.00 | 0.00 | 0.00 | 83 | 1020.4 |
| 20260905093837 | 50 | 317 | 1.0 | 1.0 | 0.00 | 0.00 | 0.00 | 83 | 1020.4 |
| 20260905093338 | 50 | 317 | 1.0 | 1.0 | 0.00 | 0.00 | 0.00 | 83 | 1020.4 |
| 20260905092834 | 50 | 317 | 0.0 | 1.0 | 0.00 | 0.00 | 0.00 | 84 | 1020.3 |
| 20260905092635 | 50 | 317 | 0.0 | 1.0 | 0.00 | 0.00 | 0.00 | 83 | 1020.3 |
| 20260905092129 | 50 | 317 | 0.0 | 1.0 | 0.00 | 0.00 | 0.00 | 83 | 1020.4 |
| 20260905091329 | 50 | 317 | 0.0 | 2.0 | 0.00 | 0.00 | 0.00 | 83 | 1020.4 |
| 20260905090829 | 50 | 317 | 0.0 | 2.0 | 0.00 | 0.00 | 0.00 | 83 | 1020.4 |
| 20260905090328 | 50 | 317 | 1.0 | 1.0 | 0.00 | 0.00 | 0.00 | 83 | 1020.4 |
| 20260905085830 | 50 | 317 | 0.0 | 2.0 | 0.00 | 0.00 | 0.00 | 83 | 1020.4 |
| 20260905085629 | 50 | 317 | 0.0 | 2.0 | 0.00 | 0.00 | 0.00 | 83 | 1020.4 |
| 20260905084829 | 50 | 317 | 0.0 | 2.0 | 0.00 | 0.00 | 0.00 | 83 | 1020.4 |
| 20260905084329 | 50 | 317 | 0.0 | 2.0 | 0.00 | 0.00 | 0.00 | 83 | 1020.4 |
| 20260905083829 | 50 | 317 | 0.0 | 2.0 | 0.00 | 0.00 | 0.00 | 83 | 1020.4 |
| 20260905083328 | 50 | 317 | 0.0 | 2.0 | 0.00 | 0.00 | 0.00 | 83 | 1020.4 |
| 20260905083128 | 50 | 317 | 0.0 | 2.0 | 0.00 | 0.00 | 0.00 | 82 | 1020.4 |
| 20260905082329 | 50 | 317 | 0.0 | 2.0 | 0.00 | 0.00 | 0.00 | 82 | 1020.4 |
| 20260905082129 | 51 | 317 | 0.0 | 2.0 | 0.00 | 0.00 | 0.00 | 81 | 1020.4 |
| 20260905081329 | 51 | 317 | 0.0 | 2.0 | 0.00 | 0.00 | 0.00 | 81 | 1020.4 |
| 20260905080828 | 51 | 317 | 0.0 | 2.0 | 0.00 | 0.00 | 0.00 | 81 | 1020.3 |
| 20260905080629 | 51 | 317 | 0.0 | 2.0 | 0.00 | 0.00 | 0.00 | 80 | 1020.3 |
| 20260905075829 | 51 | 317 | 0.0 | 2.0 | 0.00 | 0.00 | 0.00 | 80 | 1020.3 |
| 20260905075329 | 51 | 317 | 0.0 | 2.0 | 0.00 | 0.00 | 0.00 | 80 | 1020.3 |
| 20260905075133 | 52 | 317 | 0.0 | 2.0 | 0.00 | 0.00 | 0.00 | 80 | 1020.2 |
| 20260905074327 | 52 | 317 | 0.0 | 2.0 | 0.00 | 0.00 | 0.00 | 80 | 1020.2 |
| 20260905073825 | 52 | 317 | 0.0 | 2.0 | 0.00 | 0.00 | 0.00 | 81 | 1020.2 |
| 20260905073323 | 52 | 317 | 0.0 | 2.0 | 0.00 | 0.00 | 0.00 | 81 | 1020.1 |
| 20260905072822 | 52 | 317 | 0.0 | 2.0 | 0.00 | 0.00 | 0.00 | 81 | 1020.1 |
| 20260905072319 | 51 | 318 | 0.0 | 2.0 | 0.00 | 0.00 | 0.00 | 81 | 1020.2 |
| 20260905071819 | 52 | 318 | 0.0 | 2.0 | 0.00 | 0.00 | 0.00 | 81 | 1020.2 |
| 20260905071319 | 52 | 318 | 1.0 | 2.0 | 0.00 | 0.00 | 0.00 | 81 | 1020.2 |
| 20260905070819 | 51 | 318 | 1.0 | 2.0 | 0.00 | 0.00 | 0.00 | 81 | 1020.2 |
| 20260905070621 | 51 | 327 | 1.0 | 2.0 | 0.00 | 0.00 | 0.00 | 80 | 1020.2 |
| 20260905065819 | 52 | 344 | 0.0 | 2.0 | 0.00 | 0.00 | 0.00 | 80 | 1020.2 |
| 20260905065319 | 52 | 337 | 0.0 | 2.0 | 0.00 | 0.00 | 0.00 | 79 | 1020.0 |
| 20260905064814 | 52 | 344 | 0.0 | 1.0 | 0.00 | 0.00 | 0.00 | 79 | 1020.0 |
| 20260905064312 | 52 | 344 | 0.0 | 1.0 | 0.00 | 0.00 | 0.00 | 78 | 1020.0 |
| 20260905064105 | 52 | 344 | 0.0 | 2.0 | 0.00 | 0.00 | 0.00 | 79 | 1020.0 |
| 20260905063312 | 53 | 344 | 0.0 | 2.0 | 0.00 | 0.00 | 0.00 | 78 | 1019.8 |
| 20260905063109 | 53 | 344 | 0.0 | 2.0 | 0.00 | 0.00 | 0.00 | 79 | 1019.9 |
| 20260905062310 | 53 | 344 | 0.0 | 2.0 | 0.00 | 0.00 | 0.00 | 79 | 1019.9 |
| 20260905061808 | 53 | 344 | 0.0 | 2.0 | 0.00 | 0.00 | 0.00 | 79 | 1020.0 |
| 20260905061307 | 52 | 344 | 0.0 | 2.0 | 0.00 | 0.00 | 0.00 | 79 | 1020.0 |
| 20260905060805 | 52 | 344 | 0.0 | 2.0 | 0.00 | 0.00 | 0.00 | 79 | 1020.1 |
| 20260905060306 | 52 | 344 | 1.0 | 2.0 | 0.00 | 0.00 | 0.00 | 79 | 1020.0 |
| 20260905055806 | 52 | 344 | 1.0 | 1.0 | 0.00 | 0.00 | 0.00 | 80 | 1020.1 |
| 20260905055306 | 52 | 348 | 0.0 | 2.0 | 0.00 | 0.00 | 0.00 | 80 | 1020.0 |
| 20260905055103 | 51 | 17 | 0.0 | 2.0 | 0.00 | 0.00 | 0.00 | 81 | 1020.0 |
| 20260905054304 | 51 | 17 | 0.0 | 2.0 | 0.00 | 0.00 | 0.00 | 81 | 1019.9 |
| 20260905053804 | 51 | 17 | 0.0 | 2.0 | 0.00 | 0.00 | 0.00 | 81 | 1019.9 |
| 20260905053304 | 51 | 13 | 1.0 | 2.0 | 0.00 | 0.00 | 0.00 | 80 | 1019.9 |
| 20260905052804 | 52 | 17 | 0.0 | 2.0 | 0.00 | 0.00 | 0.00 | 79 | 1019.9 |
| 20260905052605 | 52 | 17 | 0.0 | 2.0 | 0.00 | 0.00 | 0.00 | 80 | 1019.9 |
| 20260905052100 | 52 | 17 | 0.0 | 2.0 | 0.00 | 0.00 | 0.00 | 79 | 1019.9 |
| 20260905051301 | 52 | 17 | 0.0 | 2.0 | 0.00 | 0.00 | 0.00 | 79 | 1019.9 |
| 20260905050803 | 52 | 17 | 0.0 | 2.0 | 0.00 | 0.00 | 0.00 | 79 | 1019.9 |
| 20260905050301 | 52 | 17 | 0.0 | 2.0 | 0.00 | 0.00 | 0.00 | 78 | 1019.8 |
| 20260905045801 | 53 | 17 | 0.0 | 2.0 | 0.00 | 0.00 | 0.00 | 78 | 1019.8 |
| 20260905045305 | 53 | 17 | 0.0 | 2.0 | 0.00 | 0.00 | 0.00 | 78 | 1019.8 |
| 20260905044801 | 53 | 17 | 1.0 | 1.0 | 0.00 | 0.00 | 0.00 | 78 | 1019.8 |
| 20260905044301 | 53 | 17 | 1.0 | 1.0 | 0.00 | 0.00 | 0.00 | 78 | 1019.8 |
| 20260905043801 | 53 | 17 | 0.0 | 1.0 | 0.00 | 0.00 | 0.00 | 78 | 1019.8 |
| 20260905043301 | 53 | 17 | 1.0 | 1.0 | 0.00 | 0.00 | 0.00 | 78 | 1019.7 |
| 20260905042802 | 53 | 13 | 1.0 | 1.0 | 0.00 | 0.00 | 0.00 | 77 | 1019.7 |
| 20260905042302 | 54 | 17 | 1.0 | 1.0 | 0.00 | 0.00 | 0.00 | 76 | 1019.7 |
| 20260905041801 | 54 | 17 | 1.0 | 1.0 | 0.00 | 0.00 | 0.00 | 76 | 1019.6 |
| 20260905041559 | 54 | 17 | 0.0 | 2.0 | 0.00 | 0.00 | 0.00 | 76 | 1019.6 |
| 20260905040801 | 54 | 17 | 0.0 | 2.0 | 0.00 | 0.00 | 0.00 | 76 | 1019.5 |
| 20260905040301 | 54 | 17 | 0.0 | 2.0 | 0.00 | 0.00 | 0.00 | 75 | 1019.4 |
| 20260905035800 | 55 | 17 | 0.0 | 2.0 | 0.00 | 0.00 | 0.00 | 74 | 1019.4 |
| 20260905035306 | 55 | 17 | 0.0 | 2.0 | 0.00 | 0.00 | 0.00 | 74 | 1019.3 |
| 20260905034847 | 55 | 17 | 0.0 | 2.0 | 0.00 | 0.00 | 0.00 | 72 | 1019.2 |
| 20260905034055 | 56 | 96 | 0.0 | 2.0 | 0.00 | 0.00 | 0.00 | 69 | 1019.1 |
| 20260905033302 | 57 | 96 | 0.0 | 2.0 | 0.00 | 0.00 | 0.00 | 69 | 1019.0 |
| 20260905032802 | 57 | 96 | 0.0 | 2.0 | 0.00 | 0.00 | 0.00 | 68 | 1019.0 |
| 20260905032405 | 57 | 84 | 0.0 | 2.0 | 0.00 | 0.00 | 0.00 | 68 | 1018.8 |
| 20260905032345 | 57 | 96 | 0.0 | 1.0 | 0.00 | 0.00 | 0.00 | 68 | 1018.9 |
| 20260905031303 | 58 | 96 | 0.0 | 2.0 | 0.00 | 0.00 | 0.00 | 67 | 1018.8 |
| 20260905030803 | 58 | 96 | 0.0 | 2.0 | 0.00 | 0.00 | 0.00 | 66 | 1018.7 |
| 20260905030303 | 59 | 96 | 0.0 | 2.0 | 0.00 | 0.00 | 0.00 | 65 | 1018.7 |
| 20260905025802 | 60 | 100 | 0.0 | 2.0 | 0.00 | 0.00 | 0.00 | 64 | 1018.6 |
| 20260905025305 | 60 | 100 | 0.0 | 2.0 | 0.00 | 0.00 | 0.00 | 63 | 1018.6 |
| 20260905024802 | 60 | 100 | 0.0 | 2.0 | 0.00 | 0.00 | 0.00 | 61 | 1018.6 |
| 20260905024303 | 61 | 318 | 0.0 | 2.0 | 0.00 | 0.00 | 0.00 | 62 | 1018.5 |
| 20260905023802 | 61 | 318 | 0.0 | 2.0 | 0.00 | 0.00 | 0.00 | 62 | 1018.5 |
| 20260905023303 | 61 | 318 | 0.0 | 2.0 | 0.00 | 0.00 | 0.00 | 61 | 1018.4 |
| 20260905022802 | 61 | 318 | 0.0 | 2.0 | 0.00 | 0.00 | 0.00 | 62 | 1018.4 |
| 20260905022305 | 61 | 294 | 0.0 | 2.0 | 0.00 | 0.00 | 0.00 | 61 | 1018.4 |
| 20260905021803 | 61 | 294 | 0.0 | 2.0 | 0.00 | 0.00 | 0.00 | 61 | 1018.2 |
| 20260905021303 | 62 | 295 | 0.0 | 2.0 | 0.00 | 0.00 | 0.00 | 60 | 1018.4 |
| 20260905020803 | 62 | 295 | 0.0 | 2.0 | 0.00 | 0.00 | 0.00 | 59 | 1018.2 |
| 20260905020302 | 62 | 294 | 0.0 | 2.0 | 0.00 | 0.00 | 0.00 | 58 | 1018.2 |
| 20260905015802 | 62 | 294 | 0.0 | 2.0 | 0.00 | 0.00 | 0.00 | 60 | 1018.2 |
| 20260905015301 | 62 | 324 | 1.0 | 2.0 | 0.00 | 0.00 | 0.00 | 58 | 1018.1 |
| 20260905014802 | 62 | 106 | 1.0 | 2.0 | 0.00 | 0.00 | 0.00 | 57 | 1018.1 |
| 20260905014557 | 62 | 123 | 0.0 | 2.0 | 0.00 | 0.00 | 0.00 | 57 | 1018.1 |
| 20260905013803 | 62 | 127 | 0.0 | 2.0 | 0.00 | 0.00 | 0.00 | 59 | 1018.1 |
| 20260905013304 | 62 | 127 | 0.0 | 2.0 | 0.00 | 0.00 | 0.00 | 60 | 1018.0 |
| 20260905012802 | 62 | 127 | 0.0 | 2.0 | 0.00 | 0.00 | 0.00 | 61 | 1018.0 |
| 20260905012306 | 62 | 127 | 0.0 | 2.0 | 0.00 | 0.00 | 0.00 | 59 | 1018.0 |
| 20260905012058 | 62 | 197 | 0.0 | 2.0 | 0.00 | 0.00 | 0.00 | 58 | 1017.9 |
| 20260905011302 | 63 | 111 | 0.0 | 2.0 | 0.00 | 0.00 | 0.00 | 60 | 1017.9 |
| 20260905010802 | 63 | 111 | 0.0 | 2.0 | 0.00 | 0.00 | 0.00 | 58 | 1017.9 |
| 20260905010305 | 63 | 108 | 0.0 | 2.0 | 0.00 | 0.00 | 0.00 | 56 | 1017.9 |
| 20260905005803 | 63 | 108 | 0.0 | 3.0 | 0.00 | 0.00 | 0.00 | 55 | 1017.9 |
| 20260905005306 | 64 | 108 | 0.0 | 3.0 | 0.00 | 0.00 | 0.00 | 55 | 1017.9 |
| 20260905004802 | 64 | 80 | 0.0 | 2.0 | 0.00 | 0.00 | 0.00 | 54 | 1017.8 |
| 20260905004405 | 64 | 267 | 1.0 | 3.0 | 0.00 | 0.00 | 0.00 | 55 | 1017.8 |
| 20260905004343 | 64 | 327 | 1.0 | 2.0 | 0.00 | 0.00 | 0.00 | 54 | 1017.8 |
| 20260905003303 | 64 | 284 | 0.0 | 3.0 | 0.00 | 0.00 | 0.00 | 54 | 1017.7 |
| 20260905002802 | 64 | 257 | 0.0 | 2.0 | 0.00 | 0.00 | 0.00 | 55 | 1017.7 |
| 20260905002306 | 64 | 140 | 0.0 | 3.0 | 0.00 | 0.00 | 0.00 | 55 | 1017.7 |
| 20260905001802 | 64 | 329 | 0.0 | 3.0 | 0.00 | 0.00 | 0.00 | 55 | 1017.7 |
| 20260905001303 | 64 | 250 | 0.0 | 3.0 | 0.00 | 0.00 | 0.00 | 56 | 1017.7 |
| 20260905000803 | 64 | 328 | 0.0 | 3.0 | 0.00 | 0.00 | 0.00 | 55 | 1017.6 |
| 20260905000414 | 64 | 210 | 0.0 | 2.0 | 0.00 | 0.00 | 0.00 | 55 | 1017.6 |
| 20260905000348 | 64 | 278 | 0.0 | 3.0 | 0.00 | 0.00 | 0.00 | 55 | 1017.6 |
| 20260904235305 | 64 | 46 | 0.0 | 2.0 | 0.00 | 0.00 | 0.00 | 57 | 1017.5 |
| 20260904235105 | 64 | 44 | 0.0 | 2.0 | 0.00 | 0.00 | 0.00 | 57 | 1017.5 |
| 20260904234302 | 64 | 42 | 0.0 | 2.0 | 0.00 | 0.00 | 0.00 | 57 | 1017.4 |
| 20260904233803 | 65 | 308 | 1.0 | 2.0 | 0.00 | 0.00 | 0.00 | 55 | 1017.4 |
| 20260904233303 | 65 | 47 | 0.0 | 2.0 | 0.00 | 0.00 | 0.00 | 51 | 1017.5 |